Terug naar catalogus

STARLINK-36483

ActiefCommunicatieVLEO
NORAD 67330·PAYLOAD·🇺🇸 United States

Gelanceerd Jan 4, 2026 vanaf Cape Canaveral Space Force Station

Loading…

Volgende Passages (komende 24 uur)

TLE

VersSource: CelesTrak SupGP

Epoch: Sep 15, 2026, 04:08 UTC

1 67330C 26002AB  26258.17270833  .00047390  00000+0  17153-2 0  2582
2 67330  43.0008 335.4366 0001709 274.1793 125.9389 15.27576545    11

Volg STARLINK-36483 in realtime met AllMySat

Download on the App Store